Theta_e
320 321 323 321 316 316 314 315 317 314 312 313 311 310 308 311 310 310 310 310 309 310 309 309 309 309 306 306 305 305 305 305 305 306 306 306 306 305 306 307 307 307 307 307
318 321 317 319 316 316 315 315 315 311 310 313 310 310 307 308 309 311 311 310 310 310 309 309 309 309 308 306 307 305 305 305 305 306 306 306 306 306 307 307 307 307 307 307
317 314 312 320 318 314 314 314 312 313 309 309 309 307 308 307 309 310 311 311 310 310 310 309 309 309 309 308 307 306 304 305 305 306 306 306 306 307 307 307 307 307 308 308
312 311 311 313 315 312 315 312 310 308 310 311 309 308 308 307 306 307 308 310 310 310 310 309 310 310 309 309 307 307 305 304 304 306 306 306 307 307 307 307 308 308 308 308
313 311 311 312 312 311 312 310 309 308 307 308 309 309 307 308 309 308 308 309 311 310 310 310 310 310 310 309 308 307 306 307 307 307 307 308 307 308 308 308 308 308 306 305
310 310 310 311 310 310 310 311 309 308 308 309 309 309 307 308 309 309 309 309 311 311 310 310 310 310 310 310 309 308 306 308 308 308 308 308 308 308 309 308 307 306 304 302
311 310 309 311 311 311 310 310 311 309 310 312 309 309 309 310 309 309 310 311 311 311 311 310 310 310 310 310 310 309 307 308 308 308 308 308 308 309 308 307 306 304 301 299
312 312 310 309 311 311 311 310 312 313 311 311 314 315 315 312 312 312 312 311 312 310 311 311 310 310 310 310 310 309 308 307 308 308 308 308 308 309 307 306 304 301 298 297
311 311 308 308 309 310 312 313 312 314 311 315 314 313 311 310 310 311 312 311 311 311 310 311 311 310 310 310 311 310 309 308 308 309 308 308 308 307 305 303 300 298 296 295
310 310 308 309 309 311 312 312 314 310 312 315 311 311 312 311 310 308 309 312 311 310 310 310 310 310 310 310 311 310 309 308 308 308 308 308 307 305 303 300 297 297 295 293
309 310 308 308 309 310 312 314 313 311 309 310 309 309 309 311 309 308 309 310 312 312 311 310 309 309 309 310 310 309 309 308 308 308 307 306 304 302 299 297 296 294 292 291
310 307 308 309 308 307 310 313 311 309 310 310 310 312 311 310 309 310 311 311 312 313 311 310 309 309 309 310 310 309 309 308 308 307 305 303 302 298 297 295 294 292 291 290
309 308 310 309 308 307 308 309 307 305 309 313 311 310 307 309 309 311 312 313 312 311 310 309 308 308 309 310 309 309 308 307 306 303 303 301 298 296 295 294 292 291 290 290
310 307 309 310 309 306 305 308 304 307 309 310 309 310 309 308 308 309 311 311 310 309 308 307 307 308 308 309 308 307 306 304 303 302 300 298 296 295 294 292 291 290 290 290
306 308 308 308 311 307 308 307 307 308 309 309 309 308 309 308 308 309 310 310 310 308 307 307 307 307 307 306 305 304 304 303 300 299 297 296 295 294 292 291 290 290 290 289
306 308 310 310 310 312 312 310 307 308 309 307 307 308 309 309 308 308 307 308 308 307 306 306 306 305 303 303 303 302 301 299 297 296 295 294 293 291 290 290 290 289 289 288
306 306 307 309 306 306 306 307 309 308 307 307 308 306 306 306 307 307 308 307 307 305 304 303 303 303 302 302 300 299 298 297 296 294 293 292 291 290 290 289 289 289 288 288
305 305 302 303 305 303 309 306 307 307 307 306 306 306 306 306 304 306 307 307 305 303 302 302 302 301 300 299 298 297 296 295 294 292 291 291 290 290 289 289 289 288 288 288
306 303 303 304 305 307 308 305 306 307 306 306 306 305 306 306 307 303 305 305 304 303 302 301 299 298 297 297 296 295 294 293 291 291 290 289 288 288 288 287 286 286 286 286
304 303 306 304 305 306 305 306 306 305 304 306 307 306 305 305 305 300 301 303 302 301 300 298 297 297 296 295 294 293 292 291 290 289 288 287 287 286 284 284 285 285 285 284
307 303 303 301 306 307 305 306 306 306 305 307 306 305 305 302 302 300 300 300 299 298 298 297 297 296 293 292 291 291 290 289 288 287 286 284 283 283 284 284 285 284 283 282
307 305 301 300 300 307 307 305 305 304 306 307 306 305 304 302 300 299 298 298 298 297 296 296 295 294 292 291 290 290 288 286 284 283 283 283 284 284 284 283 282 281 281 281
307 305 306 305 306 307 307 305 306 307 307 306 306 304 304 301 299 298 297 297 296 295 294 293 293 292 291 290 288 286 284 283 283 284 284 284 284 283 282 281 281 280 280 280
304 305 303 306 305 306 308 306 307 307 307 307 306 304 303 301 298 298 297 295 294 293 292 291 291 290 288 286 283 283 283 283 283 282 282 281 281 280 280 280 279 279 278 278
305 305 305 304 306 307 308 307 307 307 307 305 303 303 302 301 298 297 295 293 292 292 291 289 288 286 284 283 283 283 283 282 281 281 280 279 279 278 278 278 277 277 277 277
306 305 306 306 309 309 308 308 306 307 306 305 305 301 300 300 299 296 294 292 291 290 288 287 284 283 283 283 283 283 282 281 280 279 279 278 278 278 277 277 277 277 277 277
Wind_Speed
5 6 7 14 3 5 7 5 5 2 3 4 6 6 9 24 22 24 25 27 27 24 16 16 13 8 8 7 7 7 5 4 5 3 4 6 9 10 10 10 9 10 11 11
6 2 1 3 3 7 5 3 3 3 3 6 3 10 10 18 27 35 33 32 32 27 24 21 18 14 10 8 7 7 8 6 4 4 4 3 6 7 6 7 10 12 11 13
6 4 3 6 4 3 3 4 5 4 4 2 1 7 4 7 22 28 33 36 35 33 29 26 23 19 15 12 10 7 8 7 5 6 4 2 3 5 3 7 10 13 15 15
5 1 6 4 4 4 3 7 6 8 4 2 1 5 5 3 7 19 29 37 38 36 33 29 26 23 20 14 13 10 8 9 7 7 4 3 3 0 5 8 10 13 16 17
4 3 5 4 4 4 2 5 6 4 4 3 1 1 7 2 6 13 28 38 41 41 38 35 32 27 21 17 16 13 11 11 10 10 8 7 4 4 6 8 10 15 16 16
2 2 2 2 2 2 6 6 8 5 3 2 5 5 5 4 6 4 20 35 43 44 42 38 34 31 25 21 19 17 16 15 14 12 10 8 7 8 9 9 12 14 15 15
3 2 2 2 4 3 6 6 3 3 3 5 0 0 9 5 7 8 12 24 35 42 43 43 42 38 33 29 25 22 20 20 17 15 13 12 12 12 11 12 13 14 15 16
5 2 1 2 2 5 3 5 5 5 3 4 1 5 6 2 8 11 12 16 19 31 40 44 43 41 38 33 28 25 22 21 20 18 16 15 14 12 12 12 13 14 15 17
5 1 3 4 2 2 4 3 3 6 3 2 4 7 7 8 8 18 11 5 10 20 28 39 43 42 42 37 31 26 23 23 22 20 18 16 14 11 11 12 14 14 16 18
5 4 2 2 1 5 1 4 3 3 2 4 4 5 5 9 10 10 12 14 10 13 19 28 38 41 41 38 32 28 26 23 21 18 17 14 11 10 12 13 14 15 17 19
4 4 3 1 1 5 2 1 5 3 3 4 1 5 5 3 6 9 11 11 11 12 17 21 28 34 38 38 34 30 26 22 21 18 16 12 10 12 13 14 15 17 19 21
1 5 3 1 2 1 2 4 5 4 4 1 2 6 3 2 8 10 12 13 13 10 11 16 22 28 32 36 34 30 24 21 19 16 12 10 11 13 14 15 17 19 20 22
6 1 2 3 4 4 2 2 4 4 3 6 4 6 2 2 4 8 11 13 12 9 9 13 17 22 28 33 30 25 22 20 16 11 8 10 12 13 15 17 18 20 21 23
7 3 5 6 4 4 2 4 2 5 3 4 7 6 13 7 9 14 9 7 6 5 7 11 16 21 27 28 25 24 20 14 9 7 9 11 12 14 16 17 19 19 22 26
3 3 2 2 2 3 3 3 7 7 6 6 8 7 15 5 6 7 6 6 7 7 10 13 18 23 25 26 23 18 12 7 5 8 10 11 13 15 17 16 18 22 25 25
3 2 2 2 2 2 4 8 9 7 2 7 6 15 3 7 7 12 13 9 10 11 14 17 23 28 26 21 17 11 5 2 5 9 10 13 16 15 14 19 22 23 23 25
3 5 3 3 3 2 6 8 6 5 5 5 5 8 5 4 10 12 10 9 11 13 17 22 27 24 20 15 9 4 1 4 7 9 12 12 11 14 18 19 21 23 25 27
5 5 2 2 3 1 6 3 4 7 6 8 7 7 10 6 5 8 3 8 12 16 21 26 24 20 14 9 5 1 3 6 8 10 12 13 15 18 20 22 25 26 26 26
3 5 3 4 3 6 6 1 3 5 3 2 4 6 1 7 5 16 9 7 11 18 24 21 18 15 11 6 3 3 5 6 9 12 14 17 18 21 23 25 27 27 26 25
6 6 4 2 4 5 6 4 1 2 4 1 3 7 5 3 3 1 9 11 21 24 23 20 15 10 6 4 2 4 7 11 14 16 18 21 24 26 26 25 24 25 28 30
3 3 5 2 2 7 6 8 2 4 6 1 3 3 8 3 2 17 18 24 25 22 18 14 11 7 6 3 4 8 11 15 17 20 23 24 24 23 23 24 26 28 30 32
7 6 3 3 2 6 7 4 6 4 5 1 2 4 10 16 22 25 26 25 21 19 15 10 7 6 4 5 9 13 16 18 20 21 22 22 23 24 25 27 29 30 31 31
3 6 5 8 6 4 8 3 3 5 3 2 3 9 15 24 27 27 25 22 19 15 12 8 4 4 5 9 13 16 18 19 20 21 22 23 24 26 27 29 31 33 31 31
3 5 3 3 4 11 7 9 6 5 2 4 8 15 20 26 27 25 23 21 17 13 9 5 3 5 9 12 15 16 17 18 20 22 25 27 29 31 32 32 33 32 33 33
4 10 6 4 5 4 11 13 10 8 8 12 16 19 22 24 25 24 22 18 14 10 6 3 5 8 10 11 13 15 17 20 23 26 28 30 32 33 34 33 31 30 28 23
10 7 5 6 15 9 5 19 14 13 15 17 19 24 23 21 24 22 19 15 11 7 4 5 8 9 10 12 14 16 20 24 27 29 30 31 31 32 32 32 32 27 24 22
Wind_Direction
55 100 185 184 167 116 123 134 160 234 196 129 211 265 238 208 212 221 218 210 212 219 221 214 207 202 204 193 179 177 169 164 167 148 136 98 72 62 66 50 36 27 24 15
40 89 158 69 92 103 116 108 201 79 129 161 168 260 239 205 217 217 216 215 217 219 217 215 212 211 213 205 192 188 187 194 188 202 170 113 71 74 68 29 11 6 358 353
127 179 88 161 301 18 112 165 189 146 131 77 79 291 253 241 228 224 225 226 223 221 219 217 215 217 212 208 205 198 194 192 192 183 179 117 78 104 39 4 2 359 349 341
112 142 146 128 260 141 249 183 133 132 107 217 105 279 281 228 245 223 228 227 228 225 225 224 221 219 217 211 201 203 198 193 187 180 198 166 168 175 4 354 351 343 337 334
220 129 128 139 206 203 236 123 118 104 74 81 255 41 270 1 260 230 224 226 228 226 227 225 224 225 220 209 208 203 197 182 178 180 184 201 225 302 323 319 322 324 323 323
88 97 75 124 84 67 166 73 49 61 71 356 240 175 275 214 217 269 227 226 229 227 226 228 230 225 220 212 210 209 204 190 191 197 210 232 267 287 287 286 303 314 318 322
5 10 0 86 94 47 62 59 14 357 6 230 129 145 253 285 274 245 259 239 234 230 227 226 225 223 219 214 211 210 208 202 208 215 225 244 261 270 266 285 306 314 317 323
145 271 175 7 118 170 150 150 155 213 196 269 320 238 252 314 326 325 298 270 246 230 228 227 228 226 221 217 215 213 210 209 219 229 238 249 257 255 268 295 312 318 324 332
134 213 337 30 19 86 187 187 165 105 23 55 250 297 323 352 343 357 360 322 244 239 234 229 228 228 222 217 216 217 213 215 223 237 241 244 242 255 287 309 318 323 328 333
188 95 14 336 50 30 98 138 73 357 154 251 282 276 240 348 330 337 346 340 300 259 248 238 232 229 222 218 215 214 216 223 229 234 232 230 244 275 300 313 318 321 324 332
137 104 287 69 161 187 60 38 46 109 124 183 256 260 206 258 304 311 327 335 330 280 262 250 236 229 223 214 212 213 215 219 223 219 220 234 265 293 309 318 321 326 331 334
86 127 156 157 67 351 188 173 143 121 244 237 144 277 226 252 313 348 348 340 331 313 272 248 236 228 218 209 209 210 210 213 209 212 225 257 291 308 317 320 324 327 330 331
186 11 65 352 14 347 210 94 96 105 88 199 144 258 256 275 334 347 332 323 315 297 263 239 227 219 209 201 200 200 198 196 201 214 258 294 306 312 315 316 323 325 325 326
133 126 159 186 197 145 178 188 122 128 137 187 226 297 287 300 306 315 298 304 303 276 239 222 205 199 192 189 186 181 178 184 205 255 288 299 305 311 315 323 324 319 320 321
97 153 117 210 122 197 205 163 181 190 203 179 266 205 266 292 271 293 293 291 258 226 206 194 183 178 171 165 162 163 171 194 253 288 301 311 317 322 326 321 314 314 316 322
27 145 93 19 14 238 284 248 217 224 246 258 276 279 295 310 337 305 296 248 214 195 186 175 167 158 153 151 152 158 171 264 298 308 317 323 328 329 317 312 313 316 317 317
109 126 106 240 8 23 311 246 212 199 204 172 206 235 329 323 325 320 315 220 195 179 167 160 150 144 141 143 144 152 244 308 319 329 330 330 326 311 312 310 306 302 302 304
128 102 89 185 40 357 241 229 197 206 231 216 273 286 311 305 69 29 43 173 162 159 152 145 143 143 141 140 145 115 345 333 328 323 322 317 311 308 307 305 305 307 308 308
105 118 83 137 206 290 309 332 142 177 294 143 235 286 317 136 93 48 84 150 154 150 144 140 138 135 132 119 68 358 341 332 328 327 325 323 321 318 315 313 314 314 313 311
74 69 112 153 146 228 234 255 254 99 293 290 308 313 184 160 64 58 116 135 135 139 140 140 135 125 119 98 32 336 338 334 332 332 331 325 322 320 321 321 320 318 317 319
96 37 154 145 212 288 240 222 333 93 232 292 356 46 142 98 109 135 135 133 136 134 131 131 132 125 104 74 351 336 340 335 336 329 324 327 329 328 326 323 322 323 324 322
163 143 181 84 85 277 193 101 164 195 155 147 58 111 132 125 129 134 137 134 135 132 132 131 126 101 63 360 341 339 337 337 332 334 336 334 332 330 328 327 327 325 323 321
200 179 177 179 211 227 198 208 197 159 129 147 144 139 144 139 142 142 136 136 135 135 129 121 92 49 8 345 342 343 345 343 342 338 337 335 331 328 328 327 326 326 327 327
232 172 154 98 236 229 219 220 217 194 172 151 155 150 155 147 148 143 143 139 138 133 125 106 54 16 359 352 348 349 346 342 339 339 337 334 333 333 331 330 332 333 334 331
183 151 170 257 272 265 229 218 202 182 165 152 150 156 157 154 153 151 146 144 139 133 122 81 21 8 0 354 350 347 344 342 342 342 340 337 335 334 334 335 335 333 331 331
189 179 167 216 212 201 203 199 189 179 169 166 158 155 159 164 156 157 147 144 142 132 91 34 16 5 1 352 346 344 344 345 343 342 341 340 339 338 338 336 334 338 337 333